Regional Weather Roundup
Issued by NWS State College, PA

Home | Current Version | Previous Version | Graphics & Text | Print | Product List | Glossary Off
Versions: 1 2 3 4 5 6 7 8 9 10 11 12 13 14 15 16 17 18 19 20 21 22 23 24 25 26 27 28 29 30 31 32 33 34 35 36 37 38 39 40 41 42 43 44 45 46 47 48 49 50

165
ASUS41 KCTP 200603
RWRCTP

REGIONAL WEATHER ROUNDUP
NATIONAL WEATHER SERVICE STATE COLLEGE PA
200 AM EDT FRI APR 20 2018

Note: "fair" indicates few or no clouds below 12,000 feet with no
significant weather and/or obstructions to visibility.

* = STATION THAT DOES NOT REPORT PRECIPITATION /E.G. RAIN...SNOW...ETC/
    THUNDER OR FOG.

PAZ002>004-007>009-013>016-020>023-029>032-200700-
WESTERN PENNSYLVANIA

CITY           SKY/WX    TMP DP  RH WIND       PRES   REMARKS
ERIE           FAIR      36  27  69 NW9       30.25S
MEADVILLE      FAIR      27  23  85 W5        30.22S
FRANKLIN*      FAIR      27  23  85 W8        30.22S
NEW CASTLE     FAIR      29  24  82 SW5       30.28S
BEAVER COUNTY  NOT AVBL
BUTLER*        FAIR      29  23  78 W3        30.25F
PITTSBURGH INT FAIR      31  22  69 NW7       30.27R
PITTSBURGH     FAIR      31  23  72 NW12      30.25R
INDIANA*       CLEAR     30  23  74 W6        30.25S
LATROBE        FAIR      32  23  69 W3        30.26S
WASHINGTON CO* FAIR      31  22  69 N6        30.31R
$$

PAZ004>006-010>012-017>019-024>028-033>037-041-042-045-046-049>053-200700-
CENTRAL PENNSYLVANIA

CITY           SKY/WX    TMP DP  RH WIND       PRES   REMARKS
BRADFORD       FAIR      28  20  71 NW10      30.12S
DUBOIS         FAIR      27  21  78 W8        30.16R
CLEARFIELD     FAIR      30  21  69 W9        30.17R
JOHNSTOWN      FAIR      27  21  78 NW21G29   30.13F WCI  13
ALTOONA        FAIR      33  21  61 NW12G21   30.17R
STATE COLLEGE  FAIR      32  21  64 NW10G21   30.15R
WILLIAMSPORT   CLOUDY    34  23  64 NW13      30.13S
SELINSGROVE    MOCLDY    35  25  66 NW6       30.15R
FT INDIANTOWN  FLURRIES  37  28  69 N6G18     30.13R
CAPITAL CITY   FAIR      39  22  50 NW12      30.14R
HARRISBURG     FAIR      38  23  55 NW14      30.13R
YORK           FAIR      35  23  61 W12       30.15R
$$

PAZ038>040-043-044-047-048-054-055-060>062-067>071-200700-
EASTERN PENNSYLVANIA

CITY           SKY/WX    TMP DP  RH WIND       PRES   REMARKS
SCRANTON       FLURRIES  32  24  72 NW15      30.06S
MOUNT POCONO   FLURRIES  27  24  89 W18       29.98F WCI  14
ALLENTOWN      FAIR      36  22  56 NW14      30.08S
QUAKERTOWN*    PTCLDY    34  25  69 W6        30.08S
READING        CLOUDY    37  28  70 NW13      30.11R
LANCASTER      CLOUDY    39  24  55 NW15      30.12R
COATESVILLE    CLOUDY    37  25  60 NW9G17    30.10S
POTTSTOWN      CLOUDY    36  23  59 NW13G22   30.11R
BLUE BELL      FAIR      34  27  75 CALM      30.11R
DOYLESTOWN     FAIR      35  25  66 W12       30.07S
WILLOW GROVE   NOT AVBL
NORTH PHILA    FAIR      40  23  50 NW15G22   30.11R
PHILADELPHIA   FAIR      40  22  48 NW17      30.11R
$$




USA.gov is the U.S. government's official web portal to all federal, state and local government web resources and services.